Fort Smith, AR

2:57 AM CDT on May 29, 2017 (GMT -0500)
Fort Smith Regional

Weather History for KFSM - January, 2013

Change the Weather History Date:

Tuesday, January 29, 2013

  Actual Average Record
Temperature  
Mean Temperature 63 °F 40 °F  
Max Temperature 73 °F 51 °F 78 °F (1947)
Min Temperature 52 °F 30 °F 1 °F (1966)
Degree Days  
Heating Degree Days 2 25  
Month to date heating degree days 623 745  
Since 1 July heating degree days 1715 2044  
Growing Degree Days 13 (Base 50)    
Moisture  
Dew Point 60 °F    
Average Humidity 82    
Maximum Humidity 100    
Minimum Humidity 64    
Precipitation  
Precipitation 2.71 in 0.10 in 2.71 in (2013)
Month to date precipitation 3.97 2.62  
Year to date precipitation 3.97 2.62  
Sea Level Pressure  
Sea Level Pressure 29.60 in    
Wind  
Wind Speed 10 mph (SSW)    
Max Wind Speed 35 mph    
Max Gust Speed 41 mph    
Visibility 6 miles    
Events Rain , Thunderstorm    
T = Trace of Precipitation, MM = Missing Value Source: NWS Daily Summary

Daily Weather History Graph

Daily Weather History Graph

Search for Another Location

Airport or City:

Trip Planner

Search our weather history database for the weather conditions in past years. The results will help you decide how hot, cold, wet, or windy it might be!

Date:

Astronomy

Jan. 29, 2013 Rise Set
Actual Time 7:18 AM CST 5:42 PM CST
Civil Twilight 6:52 AM CST 6:09 PM CST
Nautical Twilight 6:21 AM CST 6:40 PM CST
Astronomical Twilight 5:51 AM CST 7:10 PM CST
Moon 8:31 PM CST 8:23 AM CST
Length of Visible Light 11h 17m
Length of Day
10h 24m
Waning Gibbous, 93% of the Moon is Illuminated
Jan 29
Waning Gibbous
Feb 3
Last Quarter
Feb 10
New
Feb 17
First Quarter
Feb 25
Full

Hourly Weather History & Observations

Time (CST) Temp. Dew Point Humidity Pressure Visibility Wind Dir Wind Speed Gust Speed Precip Events Conditions
12:53 AM 72.0 °F 59.0 °F 64% 29.83 in 10.0 mi South 12.7 mph 21.9 mph N/A   Overcast
1:53 AM 71.1 °F 59.0 °F 66% 29.82 in 10.0 mi South 13.8 mph - N/A   Overcast
2:53 AM 70.0 °F 59.0 °F 68% 29.80 in 10.0 mi South 9.2 mph - N/A   Scattered Clouds
3:53 AM 70.0 °F 60.1 °F 71% 29.80 in 10.0 mi South 9.2 mph - N/A   Mostly Cloudy
4:53 AM 70.0 °F 60.1 °F 71% 29.78 in 10.0 mi South 8.1 mph - N/A   Overcast
5:53 AM 70.0 °F 60.1 °F 71% 29.76 in 10.0 mi South 9.2 mph - N/A   Mostly Cloudy
6:53 AM 70.0 °F 61.0 °F 73% 29.75 in 10.0 mi SSE 11.5 mph 17.3 mph N/A   Overcast
7:53 AM 70.0 °F 61.0 °F 73% 29.74 in 10.0 mi SSE 5.8 mph - N/A   Overcast
8:53 AM 72.0 °F 61.0 °F 68% 29.71 in 10.0 mi South 9.2 mph - N/A   Overcast
9:37 AM 73.4 °F 62.6 °F 69% 29.70 in 10.0 mi South 10.4 mph 16.1 mph N/A   Overcast
9:45 AM 73.4 °F 62.6 °F 69% 29.70 in 10.0 mi South 9.2 mph - N/A   Overcast
9:53 AM 73.0 °F 61.0 °F 66% 29.69 in 10.0 mi South 9.2 mph 17.3 mph N/A   Overcast
10:53 AM 70.0 °F 63.0 °F 78% 29.66 in 10.0 mi SSE 9.2 mph - 0.00 in   Overcast
11:41 AM 71.6 °F 62.6 °F 73% 29.62 in 10.0 mi SSE 15.0 mph 19.6 mph 0.01 in Rain , Thunderstorm Light Thunderstorms and Rain
11:53 AM 69.1 °F 64.0 °F 84% 29.60 in 3.0 mi South 12.7 mph 23.0 mph 0.04 in   Haze
12:00 PM 69.8 °F 64.4 °F 83% 29.60 in 6.0 mi South 11.5 mph - 0.01 in Rain , Thunderstorm Thunderstorms and Rain
12:34 PM 68.0 °F 64.4 °F 88% 29.57 in 2.0 mi South 9.2 mph 20.7 mph 0.05 in Rain , Thunderstorm Thunderstorms and Rain
12:53 PM 68.0 °F 64.0 °F 87% 29.54 in 10.0 mi SSE 10.4 mph - 0.08 in Rain , Thunderstorm Thunderstorms and Rain
1:53 PM 68.0 °F 64.0 °F 87% 29.49 in 9.0 mi SE 8.1 mph - 0.03 in Rain , Thunderstorm Thunderstorms and Rain
2:53 PM 68.0 °F 64.0 °F 87% 29.46 in 1.0 mi South 26.5 mph 36.8 mph 0.12 in Rain , Thunderstorm Thunderstorms and Rain
3:04 PM 68.0 °F 64.4 °F 88% 29.47 in 2.5 mi South 16.1 mph 31.1 mph 0.13 in Rain , Thunderstorm Thunderstorms and Rain
3:12 PM 69.8 °F 64.4 °F 83% 29.46 in 2.5 mi SSW 17.3 mph 34.5 mph 0.14 in Rain , Thunderstorm Thunderstorms and Rain
3:40 PM 68.0 °F 66.2 °F 94% 29.46 in 1.0 mi SSW 9.2 mph - 0.38 in Rain , Thunderstorm Thunderstorms and Rain
3:50 PM 68.0 °F 66.2 °F 94% 29.46 in 4.0 mi SSW 18.4 mph 23.0 mph 0.45 in Rain , Thunderstorm Thunderstorms and Rain
3:53 PM 69.1 °F 66.0 °F 90% 29.45 in 6.0 mi SSW 19.6 mph 24.2 mph 0.45 in Rain , Thunderstorm Thunderstorms and Rain
4:13 PM 68.0 °F 64.4 °F 88% 29.47 in 2.0 mi West 34.5 mph 41.4 mph 0.01 in Rain , Thunderstorm Heavy Thunderstorms and Rain
4:23 PM 59.0 °F 57.2 °F 94% 29.50 in 2.0 mi WNW 20.7 mph 35.7 mph 0.20 in Rain , Thunderstorm Heavy Thunderstorms and Rain
4:42 PM 57.2 °F 57.2 °F 100% 29.51 in 1.0 mi West 12.7 mph - 0.52 in Rain , Thunderstorm Heavy Thunderstorms and Rain
4:53 PM 57.0 °F 57.0 °F 100% 29.52 in 1.0 mi West 12.7 mph - 0.90 in Rain , Thunderstorm Heavy Thunderstorms and Rain
5:29 PM 57.2 °F 57.2 °F 100% 29.52 in 2.0 mi WSW 4.6 mph - 0.46 in Rain , Thunderstorm Heavy Thunderstorms and Rain
5:39 PM 57.2 °F 57.2 °F 100% 29.55 in 5.0 mi SW 8.1 mph - 0.48 in Rain , Thunderstorm Heavy Thunderstorms and Rain
5:53 PM 57.9 °F 55.9 °F 93% 29.52 in 5.0 mi West 10.4 mph - 0.50 in Rain , Thunderstorm Heavy Thunderstorms and Rain
6:53 PM 57.9 °F 57.0 °F 97% 29.53 in 5.0 mi Calm Calm - 0.08 in Rain , Thunderstorm Heavy Thunderstorms and Rain
7:34 PM 57.2 °F 57.2 °F 100% 29.51 in 5.0 mi SE 4.6 mph - 0.11 in Rain Rain
7:53 PM 57.0 °F 57.0 °F 100% 29.50 in 6.0 mi Calm Calm - 0.13 in Rain Light Rain
8:03 PM 57.2 °F 57.2 °F 100% 29.52 in 7.0 mi South 3.5 mph - 0.03 in Rain Rain
8:34 PM 57.2 °F 55.4 °F 94% 29.54 in 7.0 mi SSW 10.4 mph - 0.15 in Rain Rain
8:53 PM 57.0 °F 55.9 °F 96% 29.55 in 4.0 mi SW 10.4 mph - 0.23 in Rain Rain
9:03 PM 57.2 °F 55.4 °F 94% 29.57 in 3.0 mi SW 10.4 mph - 0.05 in Rain Heavy Rain
9:36 PM 55.4 °F 51.8 °F 88% 29.61 in 6.0 mi West 17.3 mph 32.2 mph 0.12 in Rain Rain
9:53 PM 55.0 °F 53.1 °F 93% 29.56 in 10.0 mi North 4.6 mph - 0.15 in Rain Light Rain
10:53 PM 53.1 °F 52.0 °F 96% 29.55 in 10.0 mi South 5.8 mph - 0.00 in   Mostly Cloudy
11:53 PM 52.0 °F 50.0 °F 93% 29.54 in 10.0 mi North - - N/A   Clear